Location: Passau
(48.5830°N, 13.4830°E)
Time: 05:13:03
(UTC+02:00)

Vanguard 1 - Pass Details

Date: 27 July 2021
Orbit: 652 x 3831 km, 34.3° (Epoch: 16 September)

Event Time Altitude Azimuth Distance (km) Brightness Sun altitude
Rises 13:28:09 0° 228° (SW) 3,468 13.2 60.3°
Reaches altitude 10° 13:30:37 10° 216° (SW) 2,777 13.0 60.3°
Maximum altitude 13:36:13 28° 159° (SSE) 2,332 12.9 60.1°
Drops below altitude 10° 13:44:57 10° 107° (ESE) 4,459 13.6 59.8°
Sets 13:50:15 0° 98° (E) 6,056 14.1 59.5°
